STARLINK-30245 (57612 NORAD) Tracking and Keplerian Element Data

This shows tracking and keplerian element data for the satellite.

Feedback or suggestion? Click here.




ElementValue
Catalog57612
NameSTARLINK-30245
Epoch Orbit376
Epoch Day239.16667824
Epoch Year2023
RAAN77.7314
Inclination43.0008
Eccentricity0.0002706
Argument of Perigee171.8915
Mean Anonmoly86.5616
Mean Motion15.74523375
Decay Rate-0.00835855
L11 57612U 23119L 23239.16667824 -.00835855 00000+0 -61350-2 0 9998
L22 57612 43.0008 77.7314 0002706 171.8915 86.5616 15.74523375 3764



Live tracking and technical data element details for STARLINK-30245 (NORAD 57612). STARLINK-30245 can be tracked NOW for your location showing map with azimuth and elevation plus other details from your city location.







IsCatalogInMostPopularTable: catalog: 57612, numindb: 6
Update: records affected: 1



GetName: 57612 STARLINK-30245

Hit Count: updated at: Tue, 26 Sep 2023 12:47:40 GMT